Regional Weather Roundup
Issued by NWS

Home | Current Version | Previous Version | Graphics & Text | Print | Product List | Glossary On
Versions: 1 2 3 4 5 6 7 8 9 10 11 12 13 14 15 16 17 18 19 20 21 22 23 24 25 26 27 28
000
ASUS45 KGTF 030510
RWRMT
MONTANA HOURLY WEATHER ROUNDUP
NATIONAL WEATHER SERVICE GREAT FALLS MT
1100 PM MDT SAT MAY 02 2015

NOTE: "FAIR" INDICATES FEW OR NO CLOUDS BELOW 12000 FEET WITH NO
SIGNIFICANT WEATHER AND/OR OBSTRUCTIONS TO VISIBILITY.

MTZ001>007-043-030600-
WEST OF THE DIVIDE

CITY           SKY/WX    TMP DP  RH WIND       PRES   REMARKS
KALISPELL      CLEAR     44  22  41 E3        29.91R
MISSOULA       CLEAR     49  22  34 N7        29.91R
BUTTE          MOCLDY    49  16  26 VRB3      29.93R
DEER LODGE       N/A     46  14  27 CALM      29.96R
EUREKA           N/A     45  18  33 N8        29.95R
LIBBY            N/A     45  27  49 CALM      29.94R
$$

MTZ008-052>055-030600-
SOUTHWEST MONTANA

CITY           SKY/WX    TMP DP  RH WIND       PRES   REMARKS
BOZEMAN        CLOUDY    61  14  16 N10G23    29.88R
DILLON         CLOUDY    54  24  31 NE8       29.89R
$$

MTZ009-010-012-014-046-048-049-054-030600-
EAST SLOPES AND CENTRAL MONTANA

CITY           SKY/WX    TMP DP  RH WIND       PRES   REMARKS
CUT BANK       CLOUDY    42  30  62 W5        29.99R
GREAT FALLS    CLOUDY    44  28  53 N13       29.98R
MALMSTROM AFB  MOCLDY    44  30  57 N10       29.98R
HELENA         PTCLDY    53  34  48 NW9       29.92R
$$

MTZ011-013-016-021-045-047-050-051-030600-
NORTH CENTRAL MONTANA

CITY           SKY/WX    TMP DP  RH WIND       PRES   REMARKS
HAVRE          CLOUDY    50  26  39 N7        29.96R
LEWISTOWN      CLOUDY    50  33  52 N13       29.93R
CHINOOK          N/A     48  27  43 NW3       29.96R
FORT BENTON      N/A     50  27  40 N8        29.98R
$$

MTZ017>020-022>042-056>058-061-062-030600-
EASTERN PLAINS

CITY           SKY/WX    TMP DP  RH WIND       PRES   REMARKS
BAKER          CLOUDY    62  33  33 NE12      29.79S
BILLINGS       CLOUDY    62  30  29 NE13      29.83S
GLASGOW        MOCLDY    46  35  65 N7        29.89R
JORDAN           N/A     53  34  48 N9        29.87R
LIVINGSTON     MOCLDY    60  22  23 VRB6      29.87R
MILES CITY     CLOUDY    61  36  39 N31G38    29.80R
SIDNEY         CLOUDY    55  34  44 N9        29.83R
WOLF POINT     PTCLDY    47  34  60 NW5       29.87R
BIG TIMBER       N/A     52  36  54 N9G17     29.91R
FORSYTH          N/A     59  36  41 NE12G18   29.83R
PLENTYWOOD       N/A     43  34  70 N6        29.85R
POPLAR           N/A     50  34  53 NW9       29.87R
$$

REGIONAL REPORTS...DAKOTAS

CITY           SKY/WX    TMP DP  RH WIND       PRES   REMARKS
WILLISTON      MOCLDY    53  35  50 N9        29.82R
MINOT          PTCLDY    54  36  50 NW12      29.75R
DICKINSON      MOCLDY    55  32  41 N9        29.75R
BEACH          FAIR      55  36  47 N9        29.82F
CROSBY         FAIR      43  32  65 NW7       29.82S
WATFORD CITY   FAIR      55  36  47 N12G17    29.79R
BISMARCK       MOCLDY    60  34  37 N3        29.69R
GRAND FORKS    CLEAR     50  43  77 CALM      29.59S
FARGO          PTCLDY    63  51  65 S12       29.60S
BUFFALO SD       N/A     57  28  33 N8        29.70R
RAPID CITY     CLEAR     52  31  44 N7        29.75S
$$

REGIONAL REPORTS...WYOMING/IDAHO/WASHINGTON

CITY           SKY/WX    TMP DP  RH WIND       PRES   REMARKS
GILLETTE       MOCLDY    45  34  65 SW5       29.81R
SHERIDAN       PTCLDY    57  33  40 W15       29.84R
BUFFALO WY     PTCLDY    56  29  35 W7        29.87R
CODY           CLOUDY    59  28  31 N13       29.89R
YELLOWSTONE LA   N/A     40  28  62 CALM      29.99R
IDAHO FALLS    CLEAR     60  29  30 SW12      29.84R
SALMON         PTCLDY    57  28  33 N10       29.86R
BOISE          PTCLDY    63  28  26 N7        29.79R
SPOKANE        CLEAR     54  26  34 NW3       29.92R
$$

REGIONAL REPORTS...ALBERTA

CITY           SKY/WX    TMP DP  RH WIND       PRES   REMARKS
EDMONTON       CLEAR     36  34  93 W7        29.96S WCI  30
CALGARY        PTCLDY    36  19  51 N6        29.98R WCI  31
LETHBRIDGE     PTCLDY    36  30  80 SW8       29.99R WCI  29
MEDICINE HAT   MOCLDY    43  25  49 CALM      29.96R
$$

REGIONAL REPORTS...SASKATCHEWAN

CITY           SKY/WX    TMP DP  RH WIND       PRES   REMARKS
SWIFT CURRENT  CLEAR     39  25  56 NW6       29.89R
REGINA         CLEAR     37  36  93 W8        29.82R WCI  31
SASKATOON      MOCLDY    43  34  70 W12       29.82S
$$



USA.gov is the U.S. government's official web portal to all federal, state and local government web resources and services.